STARLINK-35090 (65698 NORAD) Tracking and Keplerian Element Data

This shows tracking and keplerian element data for the satellite.

Feedback or suggestion? Click here.




ElementValue
Catalog65698
NameSTARLINK-35090
Epoch Orbit1493
Epoch Day353.29062201
Epoch Year2025
RAAN359.152
Inclination53.1601
Eccentricity0.0001498
Argument of Perigee79.7799
Mean Anonmoly280.3371
Mean Motion15.30204521
Decay Rate0.0002325
L11 65698U 25212Y 25353.29062201 .00023250 00000+0 79454-3 0 9999
L22 65698 53.1601 359.1520 0001498 79.7799 280.3371 15.30204521 14931



Live tracking and technical data element details for STARLINK-35090 (NORAD 65698). STARLINK-35090 can be tracked NOW for your location showing map with azimuth and elevation plus other details from your city location.







IsCatalogInMostPopularTable: catalog: 65698, numindb: 14
Update: records affected: 1



GetName: 65698 STARLINK-35090

Hit Count: updated at: Thu, 21 May 2026 10:44:47 GMT